Weather History for Havre, MT

Change the Weather History Date:

Thursday, December 6, 2012

  Actual Average Record
Temperature  
Mean Temperature 30 °F 21 °F  
Max Temperature 37 °F 32 °F 64 °F (1987)
Min Temperature 23 °F 10 °F -38 °F (2013)
Degree Days  
Heating Degree Days 35 44  
Month to date heating degree days 174 257  
Since 1 July heating degree days 2161 2300  
Cooling Degree Days 0 0  
Month to date cooling degree days 0 0  
Year to date cooling degree days 507 387  
Moisture  
Dew Point 19 °F    
Average Humidity 66    
Maximum Humidity 88    
Minimum Humidity 44    
Precipitation  
Precipitation 0.00 in 0.02 in 0.63 in (1936)
Month to date precipitation 0.03 0.08  
Year to date precipitation 12.45 10.88  
Snow  
Snow 0.00 in 0.30 in 3.40 in (1977)
Month to date snowfall 0.0 1.3  
Since 1 July snowfall 18.0 8.9  
Snow Depth 0.00 in    
Sea Level Pressure  
Sea Level Pressure 30.00 in    
Wind  
Wind Speed 8 mph (WSW)    
Max Wind Speed 15 mph    
Max Gust Speed 17 mph    
Visibility 10 miles    
Events      
T = Trace of Precipitation, MM = Missing Value Source: NWS Daily Summary

Daily Weather History Graph

Daily Weather History Graph

Search for Another Location

Airport:

Trip Planner

Search our weather history database for the weather conditions in past years. The results will help you decide how hot, cold, wet, or windy it might be!

Date:

Astronomy

Dec. 06, 2012 Rise Set
Actual Time 7:56 AM MST 4:24 PM MST
Civil Twilight 7:20 AM MST 5:00 PM MST
Nautical Twilight 6:40 AM MST 5:40 PM MST
Astronomical Twilight 6:02 AM MST 6:18 PM MST
Moon No Moon Rise 12:22 PM MST (12/6)
Length of Visible Light 9h 40m
Length of Day
8h 27m
Waning Gibbous, 48% of the Moon is Illuminated
Dec 6
Waning Gibbous
Dec 13
New
Dec 19
First Quarter
Dec 28
Full
Jan 4
Last Quarter

Hourly Weather History & Observations

Time (MST) Temp. Windchill Dew Point Humidity Pressure Visibility Wind Dir Wind Speed Gust Speed Precip Events Conditions
12:53 AM 28.0 °F - 19.0 °F 69% 30.03 in 10.0 mi Calm Calm - N/A   Clear
1:53 AM 26.1 °F 19.4 °F 18.0 °F 71% 30.04 in 10.0 mi WSW 5.8 mph - N/A   Clear
2:53 AM 23.0 °F 13.1 °F 19.0 °F 85% 30.06 in 10.0 mi SW 9.2 mph - N/A   Clear
3:53 AM 25.0 °F 14.8 °F 18.0 °F 75% 30.06 in 10.0 mi SSW 10.4 mph - N/A   Clear
4:53 AM 25.0 °F 15.5 °F 18.0 °F 75% 30.05 in 10.0 mi SW 9.2 mph - N/A   Clear
5:53 AM 26.1 °F 17.6 °F 19.0 °F 75% 30.05 in 10.0 mi WSW 8.1 mph - N/A   Clear
6:53 AM 26.1 °F 17.6 °F 19.9 °F 78% 30.06 in 10.0 mi SW 8.1 mph - N/A   Clear
7:53 AM 27.0 °F 19.5 °F 19.9 °F 75% 30.05 in 10.0 mi SW 6.9 mph - N/A   Clear
8:53 AM 28.0 °F 20.8 °F 19.9 °F 72% 30.06 in 10.0 mi WSW 6.9 mph - N/A   Mostly Cloudy
9:53 AM 33.1 °F 26.9 °F 21.0 °F 61% 30.04 in 10.0 mi WSW 6.9 mph - N/A   Clear
10:53 AM 35.1 °F 27.9 °F 19.0 °F 52% 30.04 in 10.0 mi WSW 9.2 mph - N/A   Clear
11:53 AM 37.0 °F 30.4 °F 19.9 °F 50% 30.01 in 10.0 mi WSW 9.2 mph - N/A   Clear
12:53 PM 37.0 °F 29.3 °F 18.0 °F 46% 29.98 in 10.0 mi WSW 11.5 mph - N/A   Partly Cloudy
1:53 PM 37.0 °F 29.3 °F 19.0 °F 48% 29.97 in 10.0 mi West 11.5 mph - N/A   Clear
2:53 PM 35.1 °F 28.6 °F 19.9 °F 54% 29.96 in 10.0 mi SW 8.1 mph - N/A   Clear
3:53 PM 33.1 °F 25.5 °F 19.9 °F 59% 29.96 in 10.0 mi SW 9.2 mph - N/A   Clear
4:53 PM 32.0 °F 23.0 °F 19.9 °F 61% 29.95 in 10.0 mi SW 11.5 mph - N/A   Overcast
5:53 PM 28.9 °F 20.4 °F 19.9 °F 69% 29.95 in 10.0 mi SW 9.2 mph - N/A   Scattered Clouds
6:53 PM 26.1 °F 16.2 °F 18.0 °F 71% 29.96 in 10.0 mi SW 10.4 mph - N/A   Clear
7:53 PM 25.0 °F 17.1 °F 18.0 °F 75% 29.95 in 10.0 mi WSW 6.9 mph - N/A   Clear
8:53 PM 24.1 °F 18.2 °F 18.0 °F 77% 29.96 in 10.0 mi WNW 4.6 mph - N/A   Clear
9:53 PM 23.0 °F 14.7 °F 18.0 °F 81% 29.95 in 10.0 mi SW 6.9 mph - N/A   Clear
10:53 PM 24.1 °F 16.0 °F 18.0 °F 77% 29.94 in 10.0 mi West 6.9 mph - N/A   Clear
11:53 PM 24.1 °F 18.2 °F 18.0 °F 77% 29.93 in 10.0 mi West 4.6 mph - N/A   Clear